| time (UTC) | temp F | wind direction | speed MPH | gust MPH | rain 1hr in | rain 24hr in | rain mn in | humidity % | barometer mb |
| 20260505035555 | 58 | 0 | 2.0 | 8.0 | 0.00 | 0.00 | 0.00 | 59 | 1009.0 |
| 20260505035055 | 58 | 0 | 3.0 | 9.0 | 0.00 | 0.00 | 0.00 | 59 | 1008.8 |
| 20260505034515 | 58 | 0 | 2.0 | 10.0 | 0.00 | 0.00 | 0.00 | 59 | 1008.9 |
| 20260505034015 | 59 | 0 | 3.0 | 11.0 | 0.00 | 0.00 | 0.00 | 58 | 1008.8 |
| 20260505033515 | 59 | 0 | 3.0 | 10.0 | 0.00 | 0.00 | 0.00 | 58 | 1008.9 |
| 20260505033015 | 59 | 0 | 2.0 | 10.0 | 0.00 | 0.00 | 0.00 | 57 | 1008.9 |
| 20260505032514 | 59 | 0 | 3.0 | 10.0 | 0.00 | 0.00 | 0.00 | 57 | 1008.8 |
| 20260505032015 | 59 | 0 | 3.0 | 8.0 | 0.00 | 0.00 | 0.00 | 56 | 1008.7 |
| 20260505031538 | 59 | 0 | 2.0 | 7.0 | 0.00 | 0.00 | 0.00 | 56 | 1008.8 |
| 20260505031016 | 59 | 0 | 2.0 | 9.0 | 0.00 | 0.00 | 0.00 | 56 | 1008.8 |
| 20260505030537 | 59 | 0 | 2.0 | 8.0 | 0.00 | 0.00 | 0.00 | 55 | 1008.8 |
| 20260505030017 | 59 | 0 | 2.0 | 7.0 | 0.00 | 0.00 | 0.00 | 55 | 1008.9 |
| 20260505025517 | 60 | 0 | 2.0 | 8.0 | 0.00 | 0.00 | 0.00 | 54 | 1008.9 |
| 20260505025057 | 60 | 0 | 3.0 | 10.0 | 0.00 | 0.00 | 0.00 | 54 | 1008.9 |
| 20260505024517 | 60 | 225 | 3.0 | 9.0 | 0.00 | 0.00 | 0.00 | 53 | 1008.8 |
| 20260505024017 | 60 | 180 | 3.0 | 11.0 | 0.00 | 0.00 | 0.00 | 53 | 1008.9 |
| 20260505023517 | 60 | 225 | 3.0 | 10.0 | 0.00 | 0.00 | 0.00 | 52 | 1008.9 |
| 20260505023017 | 60 | 225 | 3.0 | 9.0 | 0.00 | 0.00 | 0.00 | 52 | 1009.0 |
| 20260505022516 | 60 | 225 | 2.0 | 10.0 | 0.00 | 0.00 | 0.00 | 51 | 1009.0 |
| 20260505022017 | 60 | 203 | 3.0 | 8.0 | 0.00 | 0.00 | 0.00 | 51 | 1008.9 |
| 20260505021516 | 61 | 135 | 3.0 | 9.0 | 0.00 | 0.00 | 0.00 | 50 | 1008.9 |
| 20260505021017 | 61 | 203 | 3.0 | 9.0 | 0.00 | 0.00 | 0.00 | 50 | 1008.9 |
| 20260505020516 | 61 | 135 | 3.0 | 10.0 | 0.00 | 0.00 | 0.00 | 49 | 1008.9 |
| 20260505020016 | 61 | 158 | 3.0 | 11.0 | 0.00 | 0.00 | 0.00 | 49 | 1008.9 |
| 20260505015537 | 61 | 0 | 2.0 | 7.0 | 0.00 | 0.00 | 0.00 | 48 | 1008.8 |
| 20260505015017 | 61 | 0 | 3.0 | 15.0 | 0.00 | 0.00 | 0.00 | 48 | 1008.9 |
| 20260505014517 | 61 | 0 | 3.0 | 8.0 | 0.00 | 0.00 | 0.00 | 48 | 1008.8 |
| 20260505014017 | 61 | 0 | 3.0 | 14.0 | 0.00 | 0.00 | 0.00 | 48 | 1008.7 |
| 20260505013516 | 62 | 0 | 4.0 | 15.0 | 0.00 | 0.00 | 0.00 | 47 | 1008.6 |
| 20260505013017 | 62 | 0 | 2.0 | 9.0 | 0.00 | 0.00 | 0.00 | 47 | 1008.6 |
| 20260505012517 | 62 | 180 | 3.0 | 11.0 | 0.00 | 0.00 | 0.00 | 47 | 1008.6 |
| 20260505012016 | 62 | 158 | 3.0 | 12.0 | 0.00 | 0.00 | 0.00 | 47 | 1008.4 |
| 20260505011517 | 62 | 180 | 3.0 | 14.0 | 0.00 | 0.00 | 0.00 | 46 | 1008.4 |
| 20260505011016 | 62 | 158 | 3.0 | 7.0 | 0.00 | 0.00 | 0.00 | 46 | 1008.3 |
| 20260505010516 | 63 | 180 | 3.0 | 14.0 | 0.00 | 0.00 | 0.00 | 46 | 1008.2 |
| 20260505010017 | 63 | 0 | 4.0 | 11.0 | 0.00 | 0.00 | 0.00 | 45 | 1008.2 |
| 20260505005517 | 63 | 0 | 5.0 | 12.0 | 0.00 | 0.00 | 0.00 | 45 | 1008.2 |
| 20260505005017 | 63 | 0 | 4.0 | 16.0 | 0.00 | 0.00 | 0.00 | 44 | 1008.1 |
| 20260505004517 | 63 | 0 | 4.0 | 10.0 | 0.00 | 0.00 | 0.00 | 44 | 1007.9 |
| 20260505004016 | 64 | 0 | 4.0 | 12.0 | 0.00 | 0.00 | 0.00 | 44 | 1007.8 |
| 20260505003516 | 64 | 0 | 5.0 | 14.0 | 0.00 | 0.00 | 0.00 | 44 | 1007.7 |
| 20260505003017 | 64 | 0 | 6.0 | 14.0 | 0.00 | 0.00 | 0.00 | 43 | 1007.5 |
| 20260505002517 | 65 | 0 | 4.0 | 14.0 | 0.00 | 0.00 | 0.00 | 42 | 1007.3 |
| 20260505002016 | 65 | 0 | 5.0 | 18.0 | 0.00 | 0.00 | 0.00 | 41 | 1007.2 |
| 20260505001516 | 65 | 0 | 4.0 | 11.0 | 0.00 | 0.00 | 0.00 | 41 | 1007.1 |
| 20260505000516 | 66 | 0 | 4.0 | 10.0 | 0.00 | 0.00 | 0.00 | 41 | 1006.8 |
| 20260505000037 | 66 | 0 | 4.0 | 12.0 | 0.00 | 0.00 | 0.00 | 41 | 1006.7 |
| 20260504235516 | 66 | 0 | 3.0 | 13.0 | 0.00 | 0.00 | 0.00 | 40 | 1006.7 |
| 20260504235016 | 66 | 0 | 3.0 | 14.0 | 0.00 | 0.00 | 0.00 | 40 | 1006.6 |
| 20260504234516 | 67 | 0 | 4.0 | 18.0 | 0.00 | 0.00 | 0.00 | 40 | 1006.4 |
| 20260504234016 | 67 | 0 | 5.0 | 19.0 | 0.00 | 0.00 | 0.00 | 40 | 1006.5 |
| 20260504233516 | 67 | 0 | 4.0 | 12.0 | 0.00 | 0.00 | 0.00 | 39 | 1006.3 |
| 20260504233016 | 67 | 225 | 5.0 | 20.0 | 0.00 | 0.00 | 0.00 | 39 | 1006.3 |
| 20260504232557 | 68 | 225 | 3.0 | 10.0 | 0.00 | 0.00 | 0.00 | 39 | 1006.2 |
| 20260504232016 | 68 | 0 | 5.0 | 17.0 | 0.00 | 0.00 | 0.00 | 38 | 1006.1 |
| 20260504231516 | 68 | 0 | 4.0 | 14.0 | 0.00 | 0.00 | 0.00 | 38 | 1006.0 |
| 20260504231016 | 68 | 0 | 5.0 | 16.0 | 0.00 | 0.00 | 0.00 | 38 | 1005.9 |
| 20260504230518 | 69 | 0 | 5.0 | 12.0 | 0.00 | 0.00 | 0.00 | 37 | 1005.8 |
| 20260504230036 | 69 | 0 | 4.0 | 10.0 | 0.00 | 0.00 | 0.00 | 37 | 1005.6 |
| 20260504225536 | 69 | 180 | 5.0 | 18.0 | 0.00 | 0.00 | 0.00 | 36 | 1005.6 |
| 20260504225016 | 70 | 0 | 6.0 | 19.0 | 0.00 | 0.00 | 0.00 | 36 | 1005.4 |
| 20260504224536 | 70 | 0 | 3.0 | 15.0 | 0.00 | 0.00 | 0.00 | 35 | 1005.3 |
| 20260504224016 | 70 | 0 | 6.0 | 17.0 | 0.00 | 0.00 | 0.00 | 34 | 1005.3 |
| 20260504223516 | 71 | 180 | 4.0 | 14.0 | 0.00 | 0.00 | 0.00 | 33 | 1005.3 |
| 20260504223016 | 71 | 225 | 4.0 | 10.0 | 0.00 | 0.00 | 0.00 | 33 | 1005.2 |
| 20260504222537 | 72 | 0 | 5.0 | 15.0 | 0.00 | 0.00 | 0.00 | 32 | 1005.2 |
| 20260504222016 | 72 | 225 | 4.0 | 13.0 | 0.00 | 0.00 | 0.00 | 32 | 1005.1 |
| 20260504221516 | 72 | 180 | 4.0 | 9.0 | 0.00 | 0.00 | 0.00 | 31 | 1005.1 |
| 20260504221017 | 73 | 135 | 5.0 | 11.0 | 0.00 | 0.00 | 0.00 | 31 | 1005.1 |
| 20260504220516 | 73 | 203 | 3.0 | 13.0 | 0.00 | 0.00 | 0.00 | 29 | 1005.1 |
| 20260504220016 | 73 | 225 | 3.0 | 11.0 | 0.00 | 0.00 | 0.00 | 27 | 1005.0 |
| 20260504215516 | 74 | 225 | 2.0 | 9.0 | 0.00 | 0.00 | 0.00 | 27 | 1005.0 |
| 20260504215017 | 74 | 225 | 4.0 | 10.0 | 0.00 | 0.00 | 0.00 | 27 | 1005.1 |
| 20260504214516 | 74 | 225 | 4.0 | 11.0 | 0.00 | 0.00 | 0.00 | 27 | 1005.1 |
| 20260504214016 | 74 | 225 | 3.0 | 14.0 | 0.00 | 0.00 | 0.00 | 26 | 1005.1 |
| 20260504213516 | 74 | 0 | 3.0 | 13.0 | 0.00 | 0.00 | 0.00 | 26 | 1005.1 |
| 20260504213056 | 74 | 0 | 3.0 | 17.0 | 0.00 | 0.00 | 0.00 | 26 | 1005.1 |
| 20260504212518 | 74 | 0 | 3.0 | 10.0 | 0.00 | 0.00 | 0.00 | 26 | 1005.0 |
| 20260504212016 | 74 | 0 | 4.0 | 9.0 | 0.00 | 0.00 | 0.00 | 26 | 1005.0 |
| 20260504211516 | 74 | 0 | 2.0 | 5.0 | 0.00 | 0.00 | 0.00 | 27 | 1005.0 |
| 20260504211016 | 74 | 0 | 3.0 | 9.0 | 0.00 | 0.00 | 0.00 | 26 | 1005.0 |
| 20260504210517 | 74 | 203 | 4.0 | 13.0 | 0.00 | 0.00 | 0.00 | 26 | 1005.1 |
| 20260504210016 | 74 | 203 | 4.0 | 12.0 | 0.00 | 0.00 | 0.00 | 26 | 1005.1 |
| 20260504205516 | 74 | 225 | 4.0 | 17.0 | 0.00 | 0.00 | 0.00 | 26 | 1005.0 |
| 20260504205016 | 74 | 225 | 3.0 | 10.0 | 0.00 | 0.00 | 0.00 | 26 | 1005.0 |
| 20260504204556 | 73 | 225 | 3.0 | 12.0 | 0.00 | 0.00 | 0.00 | 26 | 1005.0 |
| 20260504204017 | 73 | 225 | 4.0 | 11.0 | 0.00 | 0.00 | 0.00 | 26 | 1005.1 |
| 20260504203516 | 73 | 203 | 4.0 | 8.0 | 0.00 | 0.00 | 0.00 | 26 | 1005.2 |
| 20260504203016 | 73 | 225 | 3.0 | 8.0 | 0.00 | 0.00 | 0.00 | 25 | 1005.0 |
| 20260504202536 | 73 | 225 | 3.0 | 11.0 | 0.00 | 0.00 | 0.00 | 25 | 1005.1 |
| 20260504202016 | 73 | 225 | 4.0 | 10.0 | 0.00 | 0.00 | 0.00 | 25 | 1005.1 |
| 20260504201516 | 73 | 203 | 3.0 | 13.0 | 0.00 | 0.00 | 0.00 | 25 | 1005.3 |
| 20260504201016 | 73 | 225 | 4.0 | 10.0 | 0.00 | 0.00 | 0.00 | 25 | 1005.2 |
| 20260504200516 | 73 | 225 | 2.0 | 7.0 | 0.00 | 0.00 | 0.00 | 25 | 1005.2 |
| 20260504200016 | 73 | 225 | 3.0 | 12.0 | 0.00 | 0.00 | 0.00 | 24 | 1005.3 |
| 20260504195516 | 73 | 225 | 4.0 | 14.0 | 0.00 | 0.00 | 0.00 | 24 | 1005.4 |
| 20260504195016 | 73 | 225 | 4.0 | 13.0 | 0.00 | 0.00 | 0.00 | 24 | 1005.3 |
| 20260504194517 | 73 | 225 | 4.0 | 13.0 | 0.00 | 0.00 | 0.00 | 24 | 1005.2 |
| 20260504194016 | 73 | 0 | 4.0 | 15.0 | 0.00 | 0.00 | 0.00 | 24 | 1005.4 |
| 20260504193536 | 73 | 225 | 3.0 | 11.0 | 0.00 | 0.00 | 0.00 | 24 | 1005.4 |
| 20260504193016 | 73 | 0 | 3.0 | 9.0 | 0.00 | 0.00 | 0.00 | 24 | 1005.2 |
| 20260504192516 | 73 | 225 | 3.0 | 13.0 | 0.00 | 0.00 | 0.00 | 24 | 1005.3 |
| 20260504192016 | 72 | 0 | 4.0 | 12.0 | 0.00 | 0.00 | 0.00 | 24 | 1005.1 |
| 20260504191516 | 72 | 225 | 4.0 | 12.0 | 0.00 | 0.00 | 0.00 | 24 | 1005.3 |
| 20260504191016 | 73 | 225 | 4.0 | 14.0 | 0.00 | 0.00 | 0.00 | 24 | 1005.4 |
| 20260504190516 | 72 | 225 | 5.0 | 12.0 | 0.00 | 0.00 | 0.00 | 24 | 1005.4 |
| 20260504190038 | 72 | 0 | 3.0 | 8.0 | 0.00 | 0.00 | 0.00 | 24 | 1005.3 |
| 20260504185516 | 72 | 0 | 4.0 | 12.0 | 0.00 | 0.00 | 0.00 | 25 | 1005.4 |
| 20260504185016 | 72 | 0 | 6.0 | 18.0 | 0.00 | 0.00 | 0.00 | 24 | 1005.5 |
| 20260504184516 | 72 | 0 | 5.0 | 17.0 | 0.00 | 0.00 | 0.00 | 25 | 1005.3 |
| 20260504184016 | 72 | 0 | 6.0 | 17.0 | 0.00 | 0.00 | 0.00 | 24 | 1005.6 |
| 20260504183536 | 72 | 0 | 4.0 | 12.0 | 0.00 | 0.00 | 0.00 | 25 | 1005.6 |
| 20260504183018 | 72 | 0 | 4.0 | 10.0 | 0.00 | 0.00 | 0.00 | 25 | 1005.6 |
| 20260504182516 | 72 | 0 | 4.0 | 12.0 | 0.00 | 0.00 | 0.00 | 24 | 1005.8 |
| 20260504182036 | 72 | 0 | 4.0 | 16.0 | 0.00 | 0.00 | 0.00 | 25 | 1005.7 |
| 20260504181516 | 72 | 0 | 4.0 | 13.0 | 0.00 | 0.00 | 0.00 | 24 | 1005.9 |
| 20260504181016 | 72 | 0 | 3.0 | 13.0 | 0.00 | 0.00 | 0.00 | 25 | 1005.8 |
| 20260504180558 | 72 | 0 | 4.0 | 12.0 | 0.00 | 0.00 | 0.00 | 25 | 1006.0 |
| 20260504180016 | 72 | 0 | 4.0 | 11.0 | 0.00 | 0.00 | 0.00 | 25 | 1006.0 |
| 20260504175516 | 72 | 0 | 3.0 | 14.0 | 0.00 | 0.00 | 0.00 | 25 | 1005.9 |
| 20260504175016 | 72 | 0 | 4.0 | 19.0 | 0.00 | 0.00 | 0.00 | 25 | 1006.1 |
| 20260504174516 | 72 | 0 | 4.0 | 12.0 | 0.00 | 0.00 | 0.00 | 25 | 1006.1 |
| 20260504174036 | 72 | 0 | 4.0 | 13.0 | 0.00 | 0.00 | 0.00 | 24 | 1006.1 |
| 20260504173518 | 72 | 0 | 4.0 | 11.0 | 0.00 | 0.00 | 0.00 | 25 | 1006.1 |
| 20260504173016 | 72 | 0 | 5.0 | 16.0 | 0.00 | 0.00 | 0.00 | 24 | 1006.1 |
| 20260504172515 | 72 | 0 | 4.0 | 11.0 | 0.00 | 0.00 | 0.00 | 24 | 1006.3 |
| 20260504172016 | 72 | 0 | 5.0 | 18.0 | 0.00 | 0.00 | 0.00 | 25 | 1006.2 |
| 20260504171536 | 72 | 0 | 5.0 | 14.0 | 0.00 | 0.00 | 0.00 | 25 | 1006.2 |
| 20260504171015 | 72 | 0 | 4.0 | 15.0 | 0.00 | 0.00 | 0.00 | 25 | 1006.3 |
| 20260504170516 | 71 | 0 | 4.0 | 14.0 | 0.00 | 0.00 | 0.00 | 26 | 1006.1 |
| 20260504151015 | 70 | 0 | 2.0 | 10.0 | 0.00 | 0.00 | 0.00 | 28 | 1007.5 |
| 20260504150516 | 70 | 0 | 3.0 | 15.0 | 0.00 | 0.00 | 0.00 | 29 | 1007.6 |
| 20260504141036 | 66 | 225 | 3.0 | 9.0 | 0.00 | 0.00 | 0.00 | 33 | 1008.0 |
| 20260504140515 | 66 | 0 | 2.0 | 4.0 | 0.00 | 0.00 | 0.00 | 34 | 1008.1 |
| 20260504130535 | 59 | 225 | 2.0 | 6.0 | 0.00 | 0.00 | 0.00 | 40 | 1009.0 |
| 20260504110515 | 51 | 225 | 1.0 | 4.0 | 0.00 | 0.00 | 0.00 | 49 | 1009.2 |
| 20260504100515 | 49 | 203 | 1.0 | 2.0 | 0.00 | 0.00 | 0.00 | 49 | 1009.2 |
| 20260504081517 | 49 | 0.0 | 2.0 | 0.00 | 0.00 | 0.00 | 49 | 1009.1 | |
| 20260504081017 | 49 | 0.0 | 2.0 | 0.00 | 0.00 | 0.00 | 49 | 1009.0 | |
| 20260504080517 | 49 | 135 | 1.0 | 2.0 | 0.00 | 0.00 | 0.00 | 49 | 1009.0 |
| 20260504050516 | 46 | 225 | 1.0 | 3.0 | 0.00 | 0.00 | 0.00 | 50 | 1008.9 |
| 20260504050016 | 46 | 225 | 1.0 | 3.0 | 0.00 | 0.00 | 0.00 | 50 | 1009.0 |
| 20260504045516 | 46 | 0.0 | 2.0 | 0.00 | 0.00 | 0.00 | 51 | 1008.9 | |
| 20260504045017 | 46 | 225 | 1.0 | 2.0 | 0.00 | 0.00 | 0.00 | 50 | 1009.0 |
| 20260504044537 | 46 | 0.0 | 2.0 | 0.00 | 0.00 | 0.00 | 51 | 1009.0 | |
| 20260504044019 | 46 | 0.0 | 1.0 | 0.00 | 0.00 | 0.00 | 50 | 1009.0 | |
| 20260504043516 | 47 | 0.0 | 2.0 | 0.00 | 0.00 | 0.00 | 50 | 1008.9 | |
| 20260504043016 | 47 | 0.0 | 2.0 | 0.00 | 0.00 | 0.00 | 50 | 1008.9 | |
| 20260504042516 | 47 | 203 | 1.0 | 2.0 | 0.00 | 0.00 | 0.00 | 50 | 1008.9 |
| 20260504042016 | 47 | 0.0 | 2.0 | 0.00 | 0.00 | 0.00 | 50 | 1009.0 | |
| 20260504041536 | 47 | 0.0 | 2.0 | 0.00 | 0.00 | 0.00 | 50 | 1008.9 | |
| 20260504041016 | 47 | 0.0 | 2.0 | 0.00 | 0.00 | 0.00 | 49 | 1008.8 | |
| 20260504040516 | 47 | 0.0 | 1.0 | 0.00 | 0.00 | 0.00 | 49 | 1008.8 | |
| 20260504040016 | 47 | 225 | 1.0 | 3.0 | 0.00 | 0.00 | 0.00 | 48 | 1008.7 |